[[{"header":{"parameterUnit":"m.s-1","parameterCategory":1,"la1":30.2991,"la2":30.254,"lo1":-89.0895,"lo2":-89.0444,"dy":0.0017,"dx":0.0017,"nx":28,"ny":28,"refTime":"2024-12-11T09:00:00:Z","depth":0,"parameterNumber":2,"parameterNumberName":"U-component_of_WINDS"},"data":[0,0,0,0,0,0,0,0,0,0,0,0,0,0,0,0,0,0,0,0,0,0,0,0,0,0,0,0,0,0,0,0,0,0,0,0,0,0,0,0,0,0,0,0,0,0,0,0,0,0,0,0,0,0,0,0,0,0,0.7363,0.7363,0,0.73,0.7299,0.7298,0.7289,0.729,0.7291,0.7291,0.7222,0.722,0.7218,0,0,0,0,0,0,0,0,0,0,0,0,0,0.7475,0.7473,0.7364,0.7363,0.7362,0.73,0.7299,0.7298,0.7289,0.729,0.7291,0.7291,0.7223,0.722,0.7218,0,0,0,0,0,0,0,0,0,0,0,0,0,0.742,0.7472,0.7364,0.735,0.7348,0.73,0.7299,0.7298,0.7289,0.729,0.7291,0.7292,0.7224,0.7221,0.7217,0.7177,0,0,0.7206,0.7205,0,0,0,0,0,0,0,0,0.7423,0.7416,0.7353,0.7351,0.7349,0.7303,0.7313,0.7257,0.7289,0.7311,0.7291,0.7292,0.7248,0.7243,0.7229,0.7174,0.7171,0.7206,0.7204,0.7202,0.7201,0,0,0,0,0,0,0,0.7427,0.7419,0.7338,0.7352,0.7349,0.7346,0.734,0.7302,0.7275,0.731,0.7309,0.7301,0.7247,0.7232,0.7227,0.717,0.7206,0.7203,0.7201,0.7199,0.7078,0.7077,0,0,0,0,0,0,0.7434,0.7422,0.734,0.7336,0.7389,0.7344,0.7336,0.7317,0.7276,0.7271,0.7301,0.7301,0.7238,0.7231,0.7225,0.7174,0.7202,0.7199,0.7197,0.7079,0.7077,0.7076,0,0,0,0,0,0,0.7436,0.7427,0.7343,0.7379,0.7368,0.7341,0.7319,0.7315,0.73,0.7269,0.7264,0.729,0.7238,0.723,0.7189,0.7171,0.7197,0.7194,0.708,0.7078,0.7077,0.7072,0,0,0,0,0,0,0.744,0.7428,0.7413,0.7379,0.7366,0.7309,0.7318,0.7313,0.7294,0.7294,0.7258,0.7253,0.7238,0.7194,0.7185,0.7167,0.7191,0.7081,0.7079,0.7077,0.7074,0.7071,0.7068,0,0,0,0,0,0.7444,0.7413,0.7412,0.7402,0.7347,0.7308,0.73,0.7285,0.7293,0.7277,0.7257,0.7254,0.7175,0.719,0.718,0.716,0.7082,0.708,0.7077,0.7075,0.7071,0.7068,0,0,0,0,0,0,0.7444,0.7409,0.7407,0.7365,0.7339,0.7306,0.7286,0.7282,0.7253,0.7254,0.7236,0.7227,0.7187,0.717,0.7187,0.7119,0.7129,0.7125,0.7131,0.7127,0.7125,0.7128,0.7188,0,0,0,0,0,0.744,0.7412,0.7382,0.7348,0.7335,0.7313,0.7295,0.7286,0.7259,0.7247,0.7225,0.7198,0.7167,0.7146,0.7116,0.7072,0.7063,0.7054,0.7051,0.7049,0.7044,0.7019,0.7014,0.7068,0.7068,0.7068,0,0,0.743,0.7407,0.739,0.7347,0.7327,0.7297,0.7304,0.7272,0.725,0.7242,0.7202,0.7185,0.7153,0.7111,0.7091,0.7095,0.7028,0.7046,0.7044,0.7041,0.7016,0.701,0.7006,0.7067,0.7067,0.7067,0,0,0.7395,0.7376,0.7345,0.7325,0.7294,0.728,0.7272,0.724,0.7228,0.7188,0.7182,0.7155,0.7102,0.708,0.7062,0.7021,0.7016,0.7011,0.6995,0.6971,0.6966,0.6962,0.6946,0.6941,0.7008,0.7008,0.7008,0,0.7386,0.7342,0.7329,0.7298,0.7279,0.7273,0.7241,0.7221,0.7182,0.7168,0.7174,0.7108,0.7087,0.7038,0.7028,0.7014,0.7004,0.7014,0.6968,0.6964,0.696,0.6944,0.6939,0.7007,0.7007,0.7007,0.7007,0,0.7332,0.7301,0.728,0.7243,0.7222,0.719,0.7172,0.7152,0.7145,0.713,0.7089,0.7063,0.7027,0.7016,0.7008,0.6966,0.6969,0.6972,0.6982,0.6955,0.6939,0.6934,0.7006,0.7007,0.7007,0.7007,0,0,0.7294,0.7252,0.7244,0.7227,0.7193,0.7169,0.7137,0.7103,0.7086,0.706,0.7031,0.6988,0.699,0.697,0.696,0.6939,0.6906,0.6944,0.6943,0.6936,0.6856,0.6853,0.6846,0.6904,0.6903,0.6902,0.6858,0,0.7254,0.7198,0.7186,0.7137,0.7108,0.7103,0.7075,0.7051,0.7036,0.7009,0.6992,0.6961,0.6968,0.6955,0.6934,0.6915,0.689,0.6918,0.6876,0.6875,0.6882,0.6838,0.6834,0.6794,0.6853,0.6852,0.6851,0,0.72,0.7173,0.7121,0.7092,0.7079,0.7054,0.7022,0.6997,0.697,0.6961,0.6938,0.6931,0.6897,0.6911,0.6862,0.6882,0.6865,0.6853,0.6851,0.6844,0.6859,0.6828,0.6781,0.6774,0.6842,0.6842,0.6843,0,0.7175,0.7126,0.7089,0.7075,0.704,0.7022,0.7007,0.698,0.6961,0.6933,0.692,0.6889,0.6871,0.6846,0.683,0.6842,0.6783,0.6795,0.6773,0.6773,0.6758,0.6759,0.6705,0.6751,0.6751,0.6751,0.6751,0,0.713,0.7098,0.7077,0.7054,0.7018,0.7005,0.6969,0.6953,0.693,0.6903,0.6897,0.6872,0.6854,0.6825,0.6813,0.6774,0.6767,0.6757,0.6754,0.6756,0.6757,0.6742,0.6744,0.675,0.675,0.675,0.6751,0,0.7095,0.708,0.7038,0.7009,0.7001,0.6976,0.695,0.6927,0.6914,0.6879,0.687,0.6848,0.6815,0.6797,0.6755,0.6747,0.6703,0.6702,0.6712,0.671,0.6687,0.6689,0.662,0.661,0.6665,0.6665,0.6664,0,0.7066,0.7042,0.7011,0.6993,0.6977,0.6948,0.6928,0.6915,0.6895,0.6862,0.6843,0.6809,0.6782,0.6728,0.6708,0.6676,0.6673,0.6651,0.6667,0.6671,0.667,0.667,0.6667,0.6647,0.6646,0.6646,0.6646,0,0.7016,0.701,0.6983,0.6953,0.693,0.6906,0.6882,0.6867,0.685,0.6827,0.6793,0.6772,0.673,0.6696,0.6663,0.6646,0.6642,0.6641,0.6634,0.6634,0.664,0.6635,0.6701,0.6642,0.6642,0.6643,0.6643,0.6643,0.6982,0.696,0.6934,0.6904,0.6885,0.6862,0.6839,0.6823,0.6795,0.676,0.6754,0.6718,0.6692,0.6647,0.6629,0.66,0.6604,0.6594,0.6591,0.6588,0.6586,0.6648,0.6594,0.6594,0.6594,0.6594,0.6594,0,0.693,0.6914,0.6886,0.6853,0.6829,0.683,0.6804,0.6783,0.6752,0.6728,0.6701,0.6662,0.663,0.6608,0.6575,0.6556,0.6553,0.6547,0.6547,0.6543,0.6585,0.6593,0.655,0.655,0.655,0.655,0.655,0.655,0.6899,0.6861,0.6853,0.6805,0.6789,0.6754,0.6739,0.6718,0.6699,0.6656,0.663,0.6616,0.6592,0.6558,0.6528,0.6522,0.6509,0.6503,0.6497,0.6536,0.654,0.6544,0.6552,0.6501,0.6501,0.6457,0.6457,0.6457]},{"header":{"parameterUnit":"m.s-1","parameterCategory":1,"la1":30.2991,"la2":30.254,"lo1":-89.0895,"lo2":-89.0444,"dy":0.0017,"dx":0.0017,"nx":28,"ny":28,"refTime":"2024-12-11T09:00:00:Z","depth":0,"parameterNumber":3,"parameterNumberName":"V-component_of_WINDS"},"data":[0,0,0,0,0,0,0,0,0,0,0,0,0,0,0,0,0,0,0,0,0,0,0,0,0,0,0,0,0,0,0,0,0,0,0,0,0,0,0,0,0,0,0,0,0,0,0,0,0,0,0,0,0,0,0,0,0,0,-4.6822,-4.6825,0,-4.7036,-4.7038,-4.7041,-4.698,-4.6976,-4.6971,-4.6967,-4.7184,-4.7194,-4.7204,0,0,0,0,0,0,0,0,0,0,0,0,0,-4.636,-4.6368,-4.6822,-4.6825,-4.6827,-4.7036,-4.7039,-4.7042,-4.6981,-4.6975,-4.697,-4.6965,-4.7181,-4.7193,-4.7205,0,0,0,0,0,0,0,0,0,0,0,0,0,-4.6566,-4.6371,-4.6822,-4.6822,-4.6824,-4.7035,-4.7039,-4.7042,-4.6982,-4.6975,-4.6969,-4.6963,-4.7177,-4.7192,-4.7206,-4.7429,0,0,-4.7251,-4.7258,0,0,0,0,0,0,0,0,-4.6554,-4.6583,-4.6819,-4.6823,-4.6825,-4.6975,-4.6955,-4.7172,-4.6984,-4.6922,-4.6967,-4.6959,-4.712,-4.7139,-4.7193,-4.7439,-4.7448,-4.7253,-4.7262,-4.7268,-4.7272,0,0,0,0,0,0,0,-4.654,-4.6573,-4.6907,-4.6823,-4.6827,-4.6811,-4.6833,-4.6996,-4.7055,-4.6927,-4.6923,-4.6949,-4.712,-4.7179,-4.7198,-4.7451,-4.7252,-4.7265,-4.7275,-4.728,-4.7891,-4.7898,0,0,0,0,0,0,-4.6524,-4.6562,-4.69,-4.6913,-4.6671,-4.6825,-4.685,-4.6933,-4.7053,-4.7065,-4.6955,-4.6946,-4.7157,-4.7181,-4.7205,-4.7475,-4.7268,-4.7282,-4.729,-4.7884,-4.7893,-4.7901,0,0,0,0,0,0,-4.6514,-4.6554,-4.6891,-4.6737,-4.6778,-4.684,-4.6934,-4.6941,-4.7,-4.7074,-4.7084,-4.7004,-4.7153,-4.7185,-4.7374,-4.7482,-4.7288,-4.7302,-4.7875,-4.7886,-4.7897,-4.8015,0,0,0,0,0,0,-4.6501,-4.6551,-4.6637,-4.6739,-4.6787,-4.7057,-4.6941,-4.695,-4.7026,-4.7016,-4.7123,-4.7135,-4.715,-4.7352,-4.7389,-4.7499,-4.7313,-4.7866,-4.788,-4.7893,-4.8002,-4.8029,-4.8052,0,0,0,0,0,-4.6485,-4.6661,-4.6642,-4.6683,-4.6895,-4.7064,-4.7091,-4.7106,-4.7035,-4.7121,-4.7169,-4.7131,-4.7464,-4.7372,-4.7413,-4.7529,-4.7859,-4.7876,-4.7892,-4.7991,-4.8024,-4.8052,0,0,0,0,0,0,-4.657,-4.6675,-4.6654,-4.6869,-4.6958,-4.7053,-4.7163,-4.714,-4.725,-4.7236,-4.7249,-4.7274,-4.7468,-4.7517,-4.7413,-4.7751,-4.7651,-4.7676,-4.7712,-4.7744,-4.7769,-4.7754,-4.7326,0,0,0,0,0,-4.6613,-4.6742,-4.6826,-4.7008,-4.7053,-4.7101,-4.7174,-4.7178,-4.7271,-4.7308,-4.7369,-4.746,-4.7584,-4.7666,-4.7785,-4.8008,-4.8031,-4.8108,-4.8133,-4.8153,-4.8175,-4.8298,-4.8333,-4.7955,-4.7955,-4.7954,0,0,-4.6705,-4.6778,-4.6859,-4.7027,-4.7096,-4.7229,-4.7133,-4.7277,-4.7376,-4.7329,-4.7513,-4.7561,-4.7663,-4.787,-4.7965,-4.7917,-4.8285,-4.8174,-4.8189,-4.8201,-4.8319,-4.8354,-4.8386,-4.7966,-4.7964,-4.7962,0,0,-4.6941,-4.7009,-4.7168,-4.724,-4.7346,-4.7376,-4.7414,-4.7514,-4.7544,-4.7728,-4.7697,-4.7813,-4.8028,-4.8103,-4.8168,-4.8432,-4.8403,-4.847,-4.8602,-4.8721,-4.8751,-4.8778,-4.8874,-4.8908,-4.8492,-4.8492,-4.8493,0,-4.7042,-4.7241,-4.7252,-4.7401,-4.7476,-4.744,-4.7602,-4.767,-4.781,-4.7863,-4.7807,-4.8076,-4.8142,-4.8367,-4.8432,-4.8486,-4.853,-4.8459,-4.8746,-4.8773,-4.8798,-4.8889,-4.8925,-4.85,-4.8499,-4.8498,-4.8498,0,-4.736,-4.7499,-4.7615,-4.7752,-4.7839,-4.7993,-4.8028,-4.8116,-4.8111,-4.8147,-4.8335,-4.8413,-4.8548,-4.8601,-4.8598,-4.8826,-4.8794,-4.8742,-4.8642,-4.8841,-4.8928,-4.8963,-4.8511,-4.8508,-4.8506,-4.8504,0,0,-4.7657,-4.7798,-4.7841,-4.7903,-4.8018,-4.8125,-4.8277,-4.841,-4.8485,-4.8582,-4.8711,-4.8893,-4.8846,-4.8921,-4.8925,-4.903,-4.9236,-4.8966,-4.8968,-4.9015,-4.9494,-4.9534,-4.9575,-4.9216,-4.9223,-4.9228,-4.9487,0,-4.7904,-4.8173,-4.8188,-4.8432,-4.856,-4.8528,-4.8661,-4.8745,-4.8783,-4.8897,-4.8937,-4.9068,-4.8995,-4.904,-4.9142,-4.919,-4.9333,-4.9171,-4.9337,-4.9342,-4.9315,-4.962,-4.9662,-4.9903,-4.952,-4.9526,-4.953,0,-4.8228,-4.8337,-4.8594,-4.8692,-4.8746,-4.8865,-4.8988,-4.9098,-4.9193,-4.9212,-4.9297,-4.9286,-4.9442,-4.9336,-4.9551,-4.944,-4.9508,-4.9542,-4.9551,-4.9569,-4.945,-4.9648,-4.9979,-5.0016,-4.9583,-4.9579,-4.9575,0,-4.8422,-4.8631,-4.8813,-4.8867,-4.8984,-4.9069,-4.9122,-4.921,-4.9289,-4.9396,-4.9448,-4.9571,-4.9639,-4.9734,-4.9758,-4.9678,-4.9973,-4.9868,-4.9995,-4.9995,-5.006,-5.0056,-5.041,-5.0101,-5.01,-5.01,-5.0099,0,-4.8697,-4.8856,-4.8902,-4.9014,-4.9191,-4.9205,-4.938,-4.9427,-4.9507,-4.9627,-4.9605,-4.9718,-4.9741,-4.9859,-4.9878,-5.0054,-5.0084,-5.0105,-5.0109,-5.0109,-5.0107,-5.0155,-5.014,-5.0109,-5.0107,-5.0105,-5.0104,0,-4.8944,-4.898,-4.9177,-4.9272,-4.9299,-4.9426,-4.9507,-4.9615,-4.9649,-4.9802,-4.9838,-4.9892,-5.003,-5.0062,-5.0225,-5.0238,-5.0448,-5.0433,-5.0416,-5.0416,-5.0542,-5.053,-5.0941,-5.0996,-5.0649,-5.0652,-5.0654,0,-4.9119,-4.9241,-4.9349,-4.9429,-4.9486,-4.9614,-4.9694,-4.9713,-4.9798,-4.9916,-5.0009,-5.0144,-5.0254,-5.0475,-5.0529,-5.0654,-5.0645,-5.078,-5.0663,-5.066,-5.0649,-5.0643,-5.0656,-5.0803,-5.0806,-5.0809,-5.0812,0,-4.9426,-4.9438,-4.9555,-4.968,-4.9777,-4.9876,-4.997,-5.0036,-5.0067,-5.0164,-5.0305,-5.039,-5.0557,-5.0692,-5.0818,-5.0871,-5.0849,-5.0848,-5.0884,-5.0887,-5.0873,-5.0884,-5.0479,-5.0839,-5.0836,-5.0834,-5.0833,-5.0832,-4.9644,-4.9751,-4.9845,-4.9976,-5.0049,-5.0138,-5.0244,-5.0292,-5.041,-5.0549,-5.0552,-5.0706,-5.0798,-5.0964,-5.1025,-5.1146,-5.1104,-5.1156,-5.117,-5.1183,-5.1196,-5.0851,-5.1168,-5.1168,-5.1167,-5.1166,-5.1166,0,-4.9951,-5.001,-5.0131,-5.0264,-5.0368,-5.0336,-5.0438,-5.0528,-5.0664,-5.0752,-5.086,-5.1023,-5.1154,-5.1217,-5.1347,-5.1431,-5.1424,-5.1465,-5.146,-5.1473,-5.1225,-5.1181,-5.1469,-5.1469,-5.1469,-5.1469,-5.1469,-5.1469,-5.0124,-5.0305,-5.0328,-5.0544,-5.0601,-5.0753,-5.0815,-5.0896,-5.0967,-5.115,-5.1259,-5.1299,-5.1378,-5.1513,-5.1632,-5.1647,-5.1697,-5.1744,-5.1754,-5.1521,-5.1491,-5.1461,-5.1421,-5.1754,-5.1754,-5.1993,-5.1995,-5.1997]}]]